Cloud_Cover
100 100 100 95 11 19 5 5 95 6 23 55 4 18 2 3 28 67 0 0 0 0 0 0 0 0 0 0 0 0 0 0 0 0 0 0 0 0 0 0 0 0 0 0 0 0 0 0 0
100 100 100 100 100 70 5 0 38 74 100 5 4 41 5 5 0 0 0 0 0 0 0 0 24 19 0 0 0 0 0 0 0 0 0 0 0 0 0 0 0 0 0 0 0 0 0 0 0
100 100 100 100 100 100 72 9 1 100 23 13 5 44 5 5 1 0 0 0 0 0 0 0 0 87 31 5 0 0 0 0 0 0 0 0 0 0 0 0 0 0 0 0 0 0 0 0 0
100 100 100 100 100 100 100 100 63 80 100 71 90 5 25 10 7 5 0 0 0 0 0 57 1 100 100 11 0 1 0 0 0 0 0 0 0 0 0 0 0 0 0 0 0 0 0 0 0
100 100 100 100 100 100 100 100 87 88 98 82 100 100 21 32 24 12 5 5 0 0 0 0 2 99 80 13 8 17 6 0 0 0 0 0 0 0 0 0 0 0 0 0 0 0 0 0 0
100 100 96 100 100 100 100 100 100 95 100 52 100 100 77 5 61 46 5 14 5 0 0 0 35 50 38 15 7 16 2 0 0 0 0 0 0 0 0 0 0 0 0 0 0 0 0 0 0
100 100 100 100 100 100 100 100 100 78 100 100 87 100 86 6 74 99 9 5 27 5 0 0 1 18 40 19 2 0 0 0 0 0 0 0 0 0 0 0 0 0 0 0 0 0 0 0 0
90 100 100 100 100 100 100 80 97 100 100 100 100 92 1 91 19 82 47 6 5 5 5 1 0 2 20 46 9 3 0 0 0 0 0 0 8 0 1 0 0 0 0 0 0 0 0 0 0
94 6 78 100 100 100 100 100 71 9 26 100 98 100 100 99 7 54 82 9 5 5 6 8 2 0 1 7 19 27 10 1 6 20 10 68 0 0 8 0 0 0 0 0 0 0 0 0 0
76 48 83 100 100 100 100 100 96 18 9 100 100 100 100 100 37 89 80 19 48 48 97 36 22 0 0 0 1 0 0 0 0 0 0 0 0 0 0 0 0 0 0 0 0 0 0 0 0
100 25 100 100 98 97 100 100 100 94 8 26 91 100 100 90 5 92 100 100 100 81 93 99 92 5 6 0 0 0 0 0 0 0 0 0 0 0 0 0 0 0 0 0 0 0 0 0 0
100 100 100 74 99 41 92 100 100 100 100 15 5 73 100 100 7 14 96 59 66 100 100 100 100 100 16 5 1 2 0 0 0 0 0 0 0 0 0 0 0 0 0 0 0 0 0 0 0
96 100 100 100 100 32 48 100 100 100 100 100 5 5 99 100 56 5 48 87 24 84 100 100 85 96 100 84 53 23 5 3 0 0 0 0 0 0 0 0 0 0 0 0 0 0 0 0 0
6 100 100 100 100 100 100 87 100 74 100 100 96 7 42 100 87 5 5 84 68 50 74 99 100 11 100 100 100 100 91 4 6 0 0 0 0 1 0 0 0 0 0 0 0 0 0 0 0
0 4 100 100 100 100 100 100 41 100 100 6 29 100 40 97 100 6 5 49 25 39 27 58 100 55 20 100 100 100 100 97 28 82 0 0 0 0 4 1 0 0 0 0 0 0 0 0 0
0 0 2 100 100 100 100 4 93 100 100 4 4 1 100 100 99 91 7 24 17 8 30 30 87 98 72 100 88 86 60 100 10 54 100 75 1 0 0 5 0 0 0 0 0 0 0 0 1
0 0 0 1 100 100 100 5 100 100 100 89 5 1 34 100 100 100 20 18 100 100 100 99 100 45 100 100 87 45 20 31 99 5 15 100 16 0 0 4 2 0 0 0 0 0 0 0 0
0 0 0 0 40 100 100 2 77 99 100 100 48 5 0 18 100 100 100 39 14 59 96 100 100 77 87 100 99 15 50 93 99 5 5 100 96 4 3 4 5 0 2 0 0 0 0 0 0
5 1 0 0 0 1 5 5 5 56 100 100 100 0 1 0 100 100 100 100 83 5 4 5 86 75 31 100 100 100 100 100 54 5 5 100 100 84 0 9 2 4 0 5 2 0 0 0 0
28 65 5 0 0 0 0 0 63 5 7 100 100 100 5 0 4 5 82 100 100 100 10 5 62 100 61 97 100 100 100 31 8 26 98 100 100 98 91 5 4 2 0 4 4 0 4 0 0
100 100 100 100 76 21 31 1 0 53 8 53 100 100 66 19 0 1 18 30 100 100 100 84 14 100 100 86 47 92 100 100 100 100 100 89 32 5 93 86 5 1 13 5 0 1 0 2 0
100 100 100 100 100 37 77 15 0 8 69 80 100 100 100 91 92 2 76 5 14 85 100 100 100 100 100 100 100 26 27 85 100 61 11 47 5 13 49 100 39 5 39 5 5 0 0 0 3
100 100 58 46 83 100 50 82 1 0 2 100 95 100 100 100 47 9 0 5 12 82 10 100 100 100 100 100 88 34 5 58 26 84 91 100 38 56 61 14 20 5 36 34 40 5 0 3 2
100 29 71 87 90 96 5 85 2 2 3 2 100 100 100 100 100 71 7 4 5 5 39 85 100 100 100 100 88 34 5 67 16 99 100 60 34 10 13 6 5 5 17 13 40 85 10 5 3
100 100 77 81 100 74 98 100 100 98 100 100 55 100 100 100 100 100 100 10 1 5 5 79 100 100 100 100 100 11 33 49 5 95 100 98 93 82 100 86 5 28 12 12 20 84 100 6 5
100 99 100 100 100 99 92 95 100 100 99 4 0 11 100 100 46 100 100 95 42 5 9 91 100 100 100 100 100 92 98 48 5 79 100 100 100 100 52 74 87 50 91 61 63 100 100 99 65
96 73 98 100 52 100 90 100 100 21 6 94 5 2 29 100 100 45 100 26 5 5 8 84 100 100 100 100 100 100 100 71 5 32 100 100 100 100 100 100 100 83 95 100 76 98 89 100 100
70 87 97 100 89 100 95 100 100 100 100 100 5 24 5 69 100 100 100 89 5 10 100 24 100 99 100 100 100 100 100 100 87 22 63 100 100 100 98 89 100 100 97 66 93 100 92 100 100
100 96 96 100 100 100 100 99 100 98 100 100 94 36 13 8 100 100 100 100 94 7 25 100 100 100 100 100 100 100 100 100 100 100 69 100 100 100 100 100 100 100 88 96 92 100 100 100 100
100 100 100 96 80 100 98 87 100 100 100 100 100 95 16 40 100 100 100 100 100 100 97 77 100 100 100 100 100 100 100 100 100 100 72 100 100 100 100 100 100 100 98 78 100 91 59 100 100